• Join FlightAware (Why Join?)
  • Login
  • US Flag 
03:03AM EDT


 

Airport Tracker/Info


-or-


 

Live Flight TrackerFlight Track Log ✈ LXJ342 ✈ 27-Jun-2013 ✈ KSAT - KDAL

Flight Track Log - Related Links

Times and Time Zones

All times are in EDT time to prevent confusion due to time zone crossing. See the LXJ342 flight status page for this flight to view local times or setup timezone preferences in your user account.

Time Position Orientation Groundspeed Altitude Reporting Facility
EDT Latitude Longitude Course Direction KTS MPH feet Rate Location/Type
04:30PM 29.4772 -98.4022 132° Southeast 228 262 5,500  Level Houston Center
04:32PM 29.5069 -98.3319 64° Northeast 233 268 10,500 3,300 Climbing Houston Center
04:33PM 29.5728 -98.2806 34° Northeast 281 323 13,000 1,860 Climbing Houston Center
04:34PM 29.6683 -98.3000 350° North 356 410 14,400 1,920 Climbing Houston Center
04:35PM 29.7778 -98.3228 350° North 371 427 17,000 2,340 Climbing Houston Center
04:36PM 29.8861 -98.3139 North 389 448 19,300 2,640 Climbing Houston Center
04:37PM 30.0025 -98.3053 North 388 447 22,500 2,820 Climbing Houston Center
04:38PM 30.1106 -98.2964 North 387 445 25,200 2,400 Climbing Houston Center
04:39PM 30.2294 -98.2869 North 396 456 27,500 1,620 Climbing Houston Center
04:40PM 30.3325 -98.2781 North 412 474 28,600 960 Climbing Houston Center
04:41PM 30.4597 -98.2681 North 445 512 29,600 1,020 Climbing Houston Center
04:42PM 30.6117 -98.2567 North 460 529 30,800 1,020 Climbing Houston Center
04:43PM 30.7408 -98.2461 North 458 527 31,800 960 Climbing Houston Center
04:44PM 30.8667 -98.2364 North 450 518 32,800 540 Climbing Houston Center
04:45PM 30.9925 -98.2264 North 447 514 33,000  Climbing Houston Center
04:46PM 31.1144 -98.2161 North 438 504 32,900 -480 Descending Houston Center
04:47PM 31.1897 -98.2367 347° North 424 488 32,200 -900 Descending Fort Worth Center
04:48PM 31.3061 -98.3228 328° Northwest 429 494 31,400 -840 Descending Fort Worth Center
04:49PM 31.4056 -98.4161 321° Northwest 437 503 30,600 -840 Descending Fort Worth Center
04:50PM 31.5247 -98.3981 North 413 475 29,800 -1,200 Descending Fort Worth Center
04:51PM 31.6256 -98.3161 35° Northeast 390 449 28,300 -1,740 Descending Fort Worth Center
04:52PM 31.7219 -98.2364 35° Northeast 412 474 26,400 -1,920 Descending Fort Worth Center
04:53PM 31.8186 -98.1592 34° Northeast 412 474 24,500 -1,860 Descending Fort Worth Center
04:54PM 31.9150 -98.0792 35° Northeast 417 480 22,700 -1,860 Descending Fort Worth Center
04:55PM 32.0053 -98.0039 35° Northeast 402 463 20,800 -1,680 Descending Fort Worth Center
04:56PM 32.0869 -97.9381 34° Northeast 377 434 19,400 -1,500 Descending Fort Worth Center
04:57PM 32.1603 -97.8722 37° Northeast 334 384 17,900 -1,440 Descending Fort Worth Center
04:58PM 32.2253 -97.8014 43° Northeast 318 366 16,600 -1,440 Descending Fort Worth Center
04:59PM 32.2861 -97.7281 46° Northeast 313 360 15,100 -1,440 Descending Fort Worth Center
05:00PM 32.3447 -97.6592 45° Northeast 297 342 13,800 -1,320 Descending Fort Worth Center
05:01PM 32.4031 -97.5881 46° Northeast 297 342 12,500 -1,260 Descending Fort Worth Center
05:02PM 32.4597 -97.5192 46° Northeast 297 342 11,300 -780 Descending Fort Worth Center
05:03PM 32.5181 -97.4503 45° Northeast 297 342 11,000 -180 Descending Fort Worth Center
05:04PM 32.5767 -97.3789 46° Northeast 297 342 11,000  Level Fort Worth Center
05:05PM 32.6328 -97.3072 47° Northeast 292 336 11,000  Level Fort Worth Center
05:06PM 32.6831 -97.2506 43° Northeast 287 330 11,000  Level Fort Worth Center
05:07PM 32.7372 -97.1836 46° Northeast 258 297 11,000 -360 Level Fort Worth Center
05:08PM 32.7997 -97.1736 North 229 264 10,300 -1,380 Descending Fort Worth Center
05:09PM 32.8708 -97.1758 358° North 237 273 8,300 -2,160 Descending Fort Worth Center
05:10PM 32.9167 -97.1000 54° Northeast 235 270 5,800 -1,620 Descending Dallas / Fort Worth TRACON
05:11PM 32.9333 -97.0333 73° East 192 221 5,000 -420 Descending Dallas / Fort Worth TRACON
05:12PM 32.9667 -96.9667 59° Northeast 190 219 5,000 -720 Level Dallas / Fort Worth TRACON
05:13PM 32.9667 -96.9167 90° East 195 224 3,600 -1,500 Descending Dallas / Fort Worth TRACON
05:14PM 32.9167 -96.9167 180° South 160 184 2,100 -960 Descending Dallas / Fort Worth TRACON
05:15PM 32.9000 -96.9000 140° Southeast 129 148 1,700 -600 Descending Dallas / Fort Worth TRACON
05:16PM 32.8667 -96.8667 140° Southeast 127 146 900 -840 Descending Dallas / Fort Worth TRACON
05:18PM 32.8471 -96.8518 118° Southeast  Level Estimated